Weather History for Fort Myers, FL

Change the Weather History Date:

Wednesday, December 26, 2012

  Actual Average Record
Temperature  
Mean Temperature 69 °F 65 °F  
Max Temperature 79 °F 75 °F 85 °F (1942)
Min Temperature 59 °F 55 °F 29 °F (1983)
Degree Days  
Heating Degree Days 0 3  
Month to date heating degree days 22 56  
Since 1 July heating degree days 37 74  
Cooling Degree Days 4 3  
Month to date cooling degree days 148 106  
Year to date cooling degree days 4361 3969  
Growing Degree Days 20 (Base 50)    
Moisture  
Dew Point 63 °F    
Average Humidity 82    
Maximum Humidity 97    
Minimum Humidity 72    
Precipitation  
Precipitation 0.16 in 0.07 in 2.20 in (1958)
Month to date precipitation 2.16 1.41  
Year to date precipitation 49.59 55.63  
Sea Level Pressure  
Sea Level Pressure 29.92 in    
Wind  
Wind Speed 10 mph (West)    
Max Wind Speed 22 mph    
Max Gust Speed 30 mph    
Visibility 9 miles    
Events Rain    
T = Trace of Precipitation, MM = Missing Value Source: NWS Daily Summary

Daily Weather History Graph

Daily Weather History Graph

Search for Another Location

Airport:

Trip Planner

Search our weather history database for the weather conditions in past years. The results will help you decide how hot, cold, wet, or windy it might be!

Date:

Astronomy

Dec. 26, 2012 Rise Set
Actual Time 7:13 AM EST 5:42 PM EST
Civil Twilight 6:48 AM EST 6:08 PM EST
Nautical Twilight 6:19 AM EST 6:37 PM EST
Astronomical Twilight 5:51 AM EST 7:05 PM EST
Moon 4:32 PM EST (12/26) 5:38 AM EST (12/26)
Length of Visible Light 11h 19m
Length of Day
10h 28m
Waxing Gibbous, 97% of the Moon is Illuminated
Dec 26
Waxing Gibbous
Dec 28
Full
Jan 4
Last Quarter
Jan 11
New
Jan 18
First Quarter

Hourly Weather History & Observations

Time (EST) Temp. Dew Point Humidity Pressure Visibility Wind Dir Wind Speed Gust Speed Precip Events Conditions
12:53 AM 66.0 °F 61.0 °F 84% - 10.0 mi SE 3.5 mph - N/A   Clear
1:53 AM 64.0 °F 60.1 °F 87% - 10.0 mi Calm Calm - N/A   Clear
2:53 AM 61.0 °F 59.0 °F 93% - 10.0 mi NNE 3.5 mph - N/A   Clear
3:53 AM 62.1 °F 60.1 °F 93% - 10.0 mi ESE 3.5 mph - N/A   Overcast
4:53 AM 63.0 °F 61.0 °F 93% - 10.0 mi SSE 3.5 mph - N/A   Mostly Cloudy
5:53 AM 64.9 °F 63.0 °F 93% - 10.0 mi SSE 6.9 mph - N/A   Clear
7:53 AM 68.0 °F 66.0 °F 93% 29.91 in 10.0 mi SSE 4.6 mph - N/A   Partly Cloudy
8:53 AM 71.1 °F 66.9 °F 87% 29.91 in 10.0 mi South 6.9 mph - N/A   Overcast
9:53 AM 75.0 °F 69.1 °F 82% 29.92 in 10.0 mi SSW 13.8 mph 20.7 mph N/A   Scattered Clouds
10:53 AM 78.1 °F 69.1 °F 74% 29.91 in 10.0 mi SSW 18.4 mph 28.8 mph N/A   Clear
11:53 AM 79.0 °F 69.1 °F 72% 29.90 in 10.0 mi SSW 19.6 mph 29.9 mph N/A   Partly Cloudy
12:53 PM 79.0 °F 70.0 °F 74% 29.87 in 10.0 mi SW 20.7 mph 29.9 mph N/A   Scattered Clouds
1:53 PM 78.1 °F 70.0 °F 76% 29.86 in 10.0 mi SSW 13.8 mph 24.2 mph N/A   Overcast
2:19 PM 78.8 °F 69.8 °F 74% 29.85 in 10.0 mi SW 15.0 mph 25.3 mph N/A   Overcast
2:53 PM 77.0 °F 70.0 °F 79% 29.85 in 10.0 mi SW 16.1 mph 29.9 mph N/A   Overcast
3:14 PM 77.0 °F 71.6 °F 83% 29.84 in 10.0 mi SW 15.0 mph 20.7 mph N/A   Overcast
3:27 PM 75.2 °F 71.6 °F 89% 29.83 in 10.0 mi SSW 15.0 mph 26.5 mph N/A   Overcast
3:39 PM 73.4 °F 69.8 °F 88% 29.86 in 2.5 mi WNW 19.6 mph 28.8 mph N/A   Haze
3:43 PM 69.8 °F 66.2 °F 88% 29.86 in 0.8 mi West 13.8 mph 28.8 mph 0.08 in Rain Heavy Rain
3:53 PM 70.0 °F 66.0 °F 87% 29.87 in 3.0 mi WNW 12.7 mph - 0.16 in Rain Light Rain
4:53 PM 71.1 °F 64.0 °F 78% 29.88 in 9.0 mi WNW 12.7 mph 23.0 mph 0.00 in   Overcast
5:53 PM 69.1 °F 62.1 °F 78% 29.90 in 9.0 mi WNW 11.5 mph 19.6 mph N/A   Overcast
6:22 PM 69.8 °F 60.8 °F 73% 29.91 in 10.0 mi NW 10.4 mph 19.6 mph N/A   Overcast
6:53 PM 68.0 °F 61.0 °F 78% 29.93 in 10.0 mi NW 13.8 mph 20.7 mph N/A   Overcast
7:19 PM 66.2 °F 60.8 °F 83% 29.94 in 10.0 mi NW 15.0 mph 23.0 mph N/A   Overcast
7:53 PM 66.0 °F 59.0 °F 78% 29.96 in 10.0 mi NW 15.0 mph 20.7 mph N/A   Overcast
8:53 PM 64.0 °F 57.0 °F 78% 29.99 in 10.0 mi NNW 11.5 mph - N/A   Overcast
9:29 PM 62.6 °F 55.4 °F 77% 30.00 in 10.0 mi NW 8.1 mph - N/A   Partly Cloudy
9:48 PM 64.4 °F 55.4 °F 73% 30.01 in 10.0 mi NW 9.2 mph - N/A   Mostly Cloudy
9:53 PM 63.0 °F 55.0 °F 75% 30.01 in 10.0 mi NNW 11.5 mph - N/A   Mostly Cloudy
10:53 PM 62.1 °F 54.0 °F 75% 30.02 in 10.0 mi NNW 9.2 mph - N/A   Mostly Cloudy
11:04 PM 60.8 °F 53.6 °F 77% 30.01 in 10.0 mi NNW 8.1 mph - N/A   Partly Cloudy
11:53 PM 60.1 °F 53.1 °F 78% 30.02 in 10.0 mi NW 5.8 mph - N/A   Partly Cloudy